Location: Arrodets-la-Barthe
(43.0306°N, 0.2829°E)
Time: 07:11:02
(UTC+00:00)

CUBEBUG 2 - Pass Details

Date: 04 April 2023
Orbit: 577 x 685 km, 97.8° (Epoch: 03 June)

Event Time Altitude Azimuth Distance (km) Brightness Sun altitude
Rises 02:47:12 0° 9° (N) 3,059 ? -28.7°
Reaches altitude 10° 02:49:29 10° 7° (N) 2,131 ? -28.4°
Enters shadow 02:52:45 43° 350° (N) 944 ? -28.0°
